Вернуться в каталог

FENGYUN 1C DEB

АктивенSSO
NORAD 33656·DEBRIS·🇨🇳 China

Запущен May 10, 1999 с Taiyuan Satellite Launch Center

Loading…

Ближайшие Пролёты (ближайшие 24 часа)

TLE

УстаревающийSource: Space-Track

Эпоха: Sep 7, 2026, 04:59 UTC

1 33656U 99025DER 26250.20791834  .00000481  00000-0  22295-3 0  9993
2 33656  98.5959 241.6937 0088798 331.6309  28.0050 14.23175133665278

Отслеживайте FENGYUN 1C DEB в реальном времени с AllMySat

Download on the App Store